www.pogodaiklimat.ru
ПОГОДА в Монтагю
Время
и дата
07:53 19.07
08:53 19.07
09:53 19.07
10:53 19.07
11:53 19.07
12:53 19.07
13:53 19.07
14:53 19.07
15:53 19.07
16:53 19.07
17:53 19.07
18:53 19.07
19:53 19.07
20:53 19.07
21:53 19.07
22:53 19.07
23:53 19.07
00:53 20.07
01:53 20.07
02:53 20.07
03:53 20.07
04:53 20.07
05:53 20.07
06:53 20.07
07:53 20.07
08:53 20.07
09:53 20.07
10:53 20.07
11:53 20.07
12:53 20.07
13:53 20.07
14:53 20.07
15:53 20.07
16:53 20.07
17:53 20.07
18:53 20.07
19:53 20.07
20:53 20.07
21:53 20.07
22:53 20.07
23:53 20.07
00:53 21.07
01:53 21.07
02:53 21.07
03:53 21.07
04:53 21.07
05:53 21.07
06:53 21.07
Ветер
(напр.,м/с)
Видим. Явления Облачность Т
(С)
Тd
(С)
f
(%)
Тe
(С)
Тes
(С)
Комфортность P
(гПа)
Po
(гПа)
Тmin
(С)
Tmax
(С)
R
(мм)
R24
(мм)
S
(см)
нст 2 16 км ясно +22.8 +7.8 38 +24 +27 комфорт 1021.7 929.0
штиль 0 16 км ясно +26.7 +8.9 33 +27 +36 жарко 1021.3 928.7
СВ 4 16 км ясно +28.9 +6.7 25 +28 +35 жарко 1020.5 928.1 +13.3 +29.4
нст 2 16 км ясно +31.7 +5.6 19 +30 +45 жарко 1020.0 927.5
З 2 16 км ясно +33.3 +3.9 16 +31 +49 жарко 1019.1 926.9
нст 3 16 км ясно +34.4 +3.9 15 +32 +48 жарко 1018.7 926.2
нст 3 16 км ясно +35.6 +3.9 14 +33 +48 жарко 1018.1 925.9
СЗ 3 16 км ясно +36.1 -0.6 10 +32 +46 жарко 1017.3 925.0
штиль 0 16 км ясно +37.2 -2.2 8 +33 +50 жарко 1016.7 924.4 +28.9 +37.2
С 6 16 км ясно +36.1 +3.3 13 +33 +36 жарко 1016.6 924.4
С 6 16 км ясно +35.0 +3.9 14 +32 +34 жарко 1016.6 924.4
С 6 16 км ясно +32.2 +3.9 17 +30 +30 жарко 1016.7 924.7
С 6 16 км ясно +28.9 +3.9 20 +27 +27 жарко 1017.4 925.3
С 5 16 км ясно +26.7 +5.6 26 +26 +26 жарко 1018.2 925.9
С 5 16 км ясно +25.0 +6.1 30 +25 +25 комфорт 1018.2 926.2 +25.0 +37.2
С 4 16 км ясно +22.8 +5.6 33 +23 +23 комфорт 1018.3 926.2
С 3 16 км ясно +19.4 +5.6 40 +20 +20 1018.5 926.2
С 3 16 км ясно +19.4 +6.1 42 +20 +20 1018.3 926.2
СВ 3 16 км ясно +19.4 +6.1 42 +20 +20 1018.1 926.2
В 3 16 км ясно +17.8 +5.6 45 +18 +18 1018.2 925.9
штиль 0 16 км ясно +15.0 +5.0 51 +15 +15 1018.7 926.2 +15.0 +26.1
В 2 16 км ясно +15.0 +5.6 53 +15 +15 1018.8 926.2
штиль 0 16 км ясно +16.1 +5.6 50 +16 +16 1019.1 926.6
штиль 0 16 км ясно +20.6 +6.1 39 +21 +23 комфорт 1019.1 926.9
штиль 0 16 км ясно +23.3 +6.7 34 +24 +28 комфорт 1019.1 926.6
штиль 0 16 км ясно +26.1 +6.7 29 +26 +35 жарко 1018.4 926.2
штиль 0 16 км ясно +28.9 +7.2 25 +28 +43 жарко 1017.5 925.3 +13.3 +28.9
нст 2 16 км ясно +31.7 +7.8 23 +31 +46 жарко 1016.8 924.7
нст 2 16 км ясно +33.9 +7.2 19 +32 +50 жарко 1016.0 924.1
штиль 0 16 км ясно +36.1 +7.2 17 +34 +60 опасность
солнечного
удара
1014.8 923.2
С 3 16 км ясно +38.9 +6.1 14 +36 +52 опасность
солнечного
удара
1013.4 921.9
нст 2 16 км ясно +40.0 +4.4 11 +37 +53 опасность
солнечного
удара
1012.6 921.3
штиль 0 16 км ясно +41.7 +4.4 10 +39 +55 опасность
солнечного
удара
1011.9 920.4 +28.9 +41.7
СЗ 7
{11}
16 км ясно +38.9 +7.8 15 +37 +39 очень
жарко
1011.5 920.1
СЗ 8
{12}
16 км ясно +36.1 +7.8 18 +34 +35 очень
жарко
1012.1 920.4
С 6 16 км ясно +33.9 +8.3 21 +32 +33 жарко 1012.3 920.7
СЗ 7
{11}
14 км ясно +32.2 +10.0 26 +32 +32 жарко 1012.7 921.3
нст 3
{8}
10 км мгла ясно +30.0 +10.6 30 +30 +30 жарко 1013.6 921.9
С 4 10 км мгла ясно +27.2 +10.6 35 +28 +28 жарко 1014.2 922.6 +27.2 +41.7
СЗ 6 10 км мгла ясно +27.8 +10.6 34 +28 +28 жарко 1014.2 922.9
С 3 11 км ясно +24.4 +10.6 42 +26 +26 жарко 1014.1 922.6
С 3 13 км ясно +24.4 +10.0 40 +25 +25 комфорт 1013.8 922.6
СВ 3 13 км ясно +21.7 +10.6 49 +23 +23 комфорт 1013.9 922.6
СВ 3 13 км ясно +21.7 +10.0 47 +23 +23 комфорт 1014.1 922.9
СВ 3 13 км ясно +20.6 +10.0 51 +23 +23 комфорт 1014.2 922.9 +19.4 +27.8
С 2 14 км ясно +20.0 +10.6 55 +22 +22 комфорт 1014.6 923.2
С 4 13 км ясно +20.6 +11.1 54 +23 +23 комфорт 1015.0 923.2
С 4 16 км ясно +25.0 +11.7 43 +26 +27 жарко 1015.2 923.8
Местоположение метеостанции Siskiyou County Airport: широта 41.7814 долгота -122.4681 высота над уровнем моря 807 м.
В архиве по умолчанию представлена погода в Монтагю за последние 1-2 суток. Обновление информации о фактической погоде в базе происходит ежечасно! Архивные данные за месяц целиком и за предыдущие месяцы Вы можете получить, выбрав интересующий диапазон дат из раскрывающегося списка и нажав кнопку "Ввод!".
Внимание! Архив погоды МЕТАР в базе сайта по станциям, не включенным в климатический монитор, хранится не более 60 дней. Нет смысла пытаться выбрать более раннюю дату.
*Определитесь, кто Вы:
Внимание! Время в таблицах - местное (без учета летнего времени). Для получения всемирного времени необходимо вычесть поправку, которая равна -8 ч.
Смотрите также архив погоды в соседних городах и на ближайших метеорологических станциях:
Партнеры нашего сайта:      
Пояснения к столбцам:
  • Ветер - указаны скорость ветра в м/с - средняя за 10 мин, порывы в срок и между сроками (в фигурных скобках) и направление, откуда дует ветер: С - северный,
  • СВ - северо-восточный, В - восточный, ЮВ - юго-восточный, Ю - южный, ЮЗ - юго-западный, З - западный, СЗ - северо-западный.
  • Видимость - горизонтальная дальность видимости в метрах или километрах. При видимости от 1 до 10 км при отсутствии осадков обычно наблюдается дымка, при ухудшении видимости до 1 км и менее - туман. В сухую погоду видимость может ухудшаться дымом, пылью или мглою.
  • Явления - указаны атмосферные явления, наблюдавшиеся в срок или в последний час перед сроком; фигурными скобками обозначены явления, наблюдавшиеся между сроками (за 1-3 часа до срока); квадратными скобками обозначены град или гололедные отложения с указанием их диаметра в мм.
  • Облачность - указаны через наклонную черту общая и нижняя облачность в баллах и высота нижней границы облаков в метрах; квадратными скобками обозначены формы облаков: Ci - перистые, Cs - перисто-слоистые, Cc - перисто-кучевые, Ac - высококучевые, As - высокослоистые, Sc - слоисто-кучевые, Ns - слоисто-дождевые, Cu - кучевые, Cb - кучево-дождевые. Подробнее классификацию облаков см. в Атласе облаков (PDF).
  • T - Температура воздуха - температура, измеренная на высоте 2 м над землей.
  • Td - Температура точки росы - температура, при понижении до которой содержащийся в воздухе водяной пар достигнет насыщения.
  • f - Относительная влажность воздуха - влажноcть воздуха, измеренная на высоте 2 м над землей.
  • Te - Эффективная температура - температура, которую ощущает одетый по сезону человек в тени. Характеристика душности погоды. При расчете учитывается влияние влажности воздуха и скорости ветра на теплоощущения человека.
  • Tes - Эффективная температура на солнце - температура, которую ощущает человек, с поправкой на солнечный нагрев. Характеристика знойности погоды. Зависит от высоты солнца над горизонтом, облачности и скорости ветра. Ночью, в пасмурную погоду, а также при ветре 12 м/с и более поправка равна нулю.
  • P - Атмосферное давление - приведенное к уровню моря атмосферное давление.
  • Po - Атмосферное давление - измеренное на уровне метеостанции атмосферное давление.
  • Tmin - Минимальная температура - минимум температуры воздуха на высоте 2 м над землей.
  • Tmax - Максимальная температура - максимум температуры воздуха на высоте 2 м над землей.
  • R - Количество осадков - Количество выпавших осадков за период времени, мм. При наведении курсора мыши на число - период времени, за который выпало указанное количество осадков.
  • R24 - Количество осадков - Количество выпавших осадков за 24 часа, мм.
  • S - Снежный покров - Высота снежного покрова, см. При наведении курсора мыши на число - состояние снежного покрова и степень покрытия местности в баллах.